When you browse on this site, cookies collect data to enhance your experience and personalize the content and advertising you see.
Visit our Privacy Policy to learn more. By continuing to use the site, you agree to this use of cookies and data.
  • In Spain
  • List of Countries
  • For 7 days
  • Water Temperature
  • Weather Map
  • Weather Widgets
  • user-avatar
    Login

    Hourly Weather Santarem

    Today, 4 June, Thursday

    Time Temperature Precipitation Wind Pressure Humidity
    00:00 +18°C° 0.1 mm 1 mps 755 mmHg 95%
    01:00 +18°C° 0.1 mm 1 mps 755 mmHg 95%
    02:00 +18°C° 0.1 mm 1 mps 755 mmHg 96%
    03:00 +18°C° 0 mm 1 mps 755 mmHg 95%
    04:00 +18°C° 0 mm 1 mps 755 mmHg 94%
    05:00 +18°C° 0 mm 1 mps 755 mmHg 93%
    06:00 +20°C° 0 mm 1 mps 755 mmHg 84%
    07:00 +21°C° 0 mm 2 mps 755 mmHg 75%
    08:00 +24°C° 0 mm 2 mps 755 mmHg 66%
    09:00 +25°C° 0 mm 3 mps 755 mmHg 62%
    10:00 +25°C° 0 mm 3 mps 756 mmHg 59%
    11:00 +26°C° 0 mm 4 mps 756 mmHg 55%
    12:00 +27°C° 0 mm 5 mps 755 mmHg 52%
    13:00 +27°C° 0 mm 5 mps 755 mmHg 48%
    14:00 +27°C° 0 mm 6 mps 755 mmHg 45%
    15:00 +26°C° 0 mm 5 mps 755 mmHg 48%
    16:00 +23°C° 0 mm 5 mps 755 mmHg 51%
    17:00 +22°C° 0 mm 5 mps 755 mmHg 54%
    18:00 +20°C° 0 mm 4 mps 756 mmHg 63%
    19:00 +18°C° 0 mm 4 mps 757 mmHg 72%
    20:00 +17°C° 0 mm 3 mps 758 mmHg 81%
    21:00 +16°C° 0 mm 3 mps 758 mmHg 85%
    22:00 +15°C° 0 mm 2 mps 758 mmHg 88%
    23:00 +14°C° 0 mm 2 mps 758 mmHg 91%

    Tomorrow, 5 June, Friday

    Time Temperature Precipitation Wind Pressure Humidity
    00:00 +14°C° 0 mm 2 mps 758 mmHg 92%
    01:00 +14°C° 0 mm 2 mps 758 mmHg 93%
    02:00 +14°C° 0 mm 2 mps 758 mmHg 94%
    03:00 +14°C° 0 mm 2 mps 758 mmHg 94%
    04:00 +15°C° 0 mm 2 mps 758 mmHg 94%
    05:00 +15°C° 0 mm 2 mps 758 mmHg 94%
    06:00 +17°C° 0 mm 2 mps 758 mmHg 84%
    07:00 +19°C° 0 mm 2 mps 758 mmHg 73%
    08:00 +21°C° 0 mm 2 mps 758 mmHg 63%
    09:00 +22°C° 0 mm 3 mps 758 mmHg 57%
    10:00 +25°C° 0 mm 3 mps 758 mmHg 52%
    11:00 +26°C° 0 mm 4 mps 758 mmHg 47%
    12:00 +26°C° 0 mm 4 mps 758 mmHg 47%
    13:00 +26°C° 0 mm 5 mps 758 mmHg 47%
    14:00 +26°C° 0 mm 5 mps 758 mmHg 47%
    15:00 +25°C° 0 mm 5 mps 757 mmHg 52%
    16:00 +22°C° 0 mm 5 mps 757 mmHg 57%
    17:00 +21°C° 0 mm 5 mps 757 mmHg 62%
    18:00 +19°C° 0 mm 4 mps 758 mmHg 71%
    19:00 +17°C° 0 mm 3 mps 758 mmHg 80%
    20:00 +16°C° 0 mm 2 mps 758 mmHg 89%
    21:00 +15°C° 0 mm 2 mps 758 mmHg 90%
    22:00 +15°C° 0 mm 2 mps 758 mmHg 91%
    23:00 +15°C° 0 mm 2 mps 759 mmHg 92%

    Day after tomorrow, 6 June, Saturday

    Time Temperature Precipitation Wind Pressure Humidity
    00:00 +15°C° 0 mm 2 mps 758 mmHg 90%
    01:00 +15°C° 0 mm 2 mps 758 mmHg 88%
    02:00 +16°C° 0 mm 2 mps 758 mmHg 86%
    03:00 +16°C° 0 mm 2 mps 758 mmHg 84%
    04:00 +17°C° 0 mm 2 mps 758 mmHg 82%
    05:00 +17°C° 0 mm 2 mps 757 mmHg 80%
    06:00 +18°C° 0 mm 2 mps 758 mmHg 76%
    07:00 +19°C° 0 mm 2 mps 758 mmHg 71%
    08:00 +20°C° 0 mm 2 mps 758 mmHg 67%
    09:00 +21°C° 0 mm 2 mps 758 mmHg 63%
    10:00 +22°C° 0 mm 3 mps 758 mmHg 59%
    11:00 +24°C° 0 mm 3 mps 757 mmHg 56%
    12:00 +25°C° 0 mm 3 mps 757 mmHg 54%
    13:00 +25°C° 0 mm 4 mps 757 mmHg 52%
    14:00 +26°C° 0 mm 4 mps 756 mmHg 50%
    15:00 +25°C° 0 mm 5 mps 756 mmHg 54%
    16:00 +23°C° 0 mm 5 mps 756 mmHg 59%
    17:00 +22°C° 0 mm 5 mps 756 mmHg 64%
    18:00 +20°C° 0 mm 4 mps 756 mmHg 70%
    19:00 +19°C° 0 mm 3 mps 757 mmHg 75%
    20:00 +17°C° 0 mm 3 mps 757 mmHg 81%
    21:00 +17°C° 0 mm 2 mps 757 mmHg 85%
    22:00 +16°C° 0 mm 2 mps 757 mmHg 88%
    23:00 +16°C° 0 mm 2 mps 757 mmHg 92%

    7 June, Sunday

    Time Temperature Precipitation Wind Pressure Humidity
    00:00 +15°C° 0 mm 2 mps 757 mmHg 93%
    01:00 +15°C° 0 mm 2 mps 757 mmHg 93%
    02:00 +15°C° 0 mm 2 mps 757 mmHg 94%
    03:00 +15°C° 0 mm 2 mps 757 mmHg 93%
    04:00 +15°C° 0 mm 2 mps 757 mmHg 92%
    05:00 +15°C° 0 mm 2 mps 757 mmHg 92%
    06:00 +17°C° 0 mm 2 mps 757 mmHg 82%
    07:00 +19°C° 0 mm 3 mps 758 mmHg 73%
    08:00 +21°C° 0 mm 4 mps 758 mmHg 64%
    09:00 +22°C° 0 mm 4 mps 758 mmHg 60%
    10:00 +23°C° 0 mm 4 mps 758 mmHg 56%
    11:00 +25°C° 0 mm 5 mps 758 mmHg 53%
    12:00 +25°C° 0 mm 5 mps 758 mmHg 53%
    13:00 +25°C° 0 mm 5 mps 758 mmHg 53%
    14:00 +24°C° 0 mm 6 mps 758 mmHg 52%
    15:00 +23°C° 0 mm 6 mps 758 mmHg 54%
    16:00 +22°C° 0 mm 6 mps 758 mmHg 57%
    17:00 +20°C° 0 mm 6 mps 758 mmHg 59%
    18:00 +19°C° 0 mm 5 mps 758 mmHg 66%
    19:00 +17°C° 0 mm 4 mps 758 mmHg 74%
    20:00 +14°C° 0 mm 3 mps 759 mmHg 82%
    21:00 +14°C° 0 mm 3 mps 759 mmHg 83%
    22:00 +14°C° 0 mm 3 mps 759 mmHg 84%
    23:00 +13°C° 0 mm 3 mps 759 mmHg 86%

    8 June, Monday

    Time Temperature Precipitation Wind Pressure Humidity
    00:00 +13°C° 0 mm 3 mps 758 mmHg 87%
    01:00 +13°C° 0 mm 3 mps 758 mmHg 88%
    02:00 +14°C° 0 mm 2 mps 758 mmHg 89%
    03:00 +14°C° 0 mm 2 mps 758 mmHg 89%
    04:00 +14°C° 0 mm 2 mps 758 mmHg 90%
    05:00 +14°C° 0 mm 2 mps 758 mmHg 90%
    06:00 +16°C° 0 mm 3 mps 758 mmHg 79%
    07:00 +18°C° 0 mm 3 mps 759 mmHg 69%
    08:00 +21°C° 0 mm 4 mps 759 mmHg 58%
    09:00 +22°C° 0 mm 4 mps 759 mmHg 53%
    10:00 +23°C° 0 mm 4 mps 759 mmHg 47%
    11:00 +26°C° 0 mm 4 mps 758 mmHg 41%
    12:00 +26°C° 0 mm 5 mps 758 mmHg 43%
    13:00 +24°C° 0 mm 6 mps 758 mmHg 44%
    14:00 +24°C° 0 mm 6 mps 758 mmHg 46%
    15:00 +23°C° 0 mm 6 mps 758 mmHg 49%
    16:00 +22°C° 0 mm 6 mps 758 mmHg 53%
    17:00 +21°C° 0 mm 6 mps 758 mmHg 57%
    18:00 +19°C° 0 mm 5 mps 758 mmHg 65%
    19:00 +18°C° 0 mm 4 mps 758 mmHg 73%
    20:00 +16°C° 0 mm 3 mps 759 mmHg 81%
    21:00 +16°C° 0 mm 3 mps 758 mmHg 84%
    22:00 +14°C° 0 mm 3 mps 758 mmHg 86%
    23:00 +15°C° 0 mm 2 mps 758 mmHg 89%

    9 June, Tuesday

    Time Temperature Precipitation Wind Pressure Humidity
    00:00 +15°C° 0 mm 2 mps 758 mmHg 91%
    01:00 +15°C° 0 mm 2 mps 758 mmHg 92%
    02:00 +14°C° 0 mm 2 mps 758 mmHg 94%
    03:00 +15°C° 0 mm 1 mps 758 mmHg 93%
    04:00 +15°C° 0 mm 1 mps 758 mmHg 92%
    05:00 +15°C° 0 mm 1 mps 758 mmHg 91%
    06:00 +19°C° 0 mm 1 mps 758 mmHg 77%
    07:00 +21°C° 0 mm 1 mps 758 mmHg 64%
    08:00 +24°C° 0 mm 1 mps 759 mmHg 50%
    09:00 +26°C° 0 mm 1 mps 759 mmHg 45%
    10:00 +28°C° 0 mm 1 mps 759 mmHg 39%
    11:00 +30°C° 0 mm 1 mps 759 mmHg 34%
    12:00 +31°C° 0 mm 1 mps 758 mmHg 33%
    13:00 +31°C° 0 mm 1 mps 758 mmHg 32%
    14:00 +32°C° 0 mm 1 mps 758 mmHg 31%
    15:00 +30°C° 0 mm 3 mps 758 mmHg 36%
    16:00 +29°C° 0 mm 4 mps 758 mmHg 40%
    17:00 +27°C° 0 mm 5 mps 758 mmHg 44%
    18:00 +25°C° 0 mm 4 mps 758 mmHg 50%
    19:00 +22°C° 0 mm 3 mps 758 mmHg 56%
    20:00 +20°C° 0 mm 3 mps 759 mmHg 61%
    21:00 +19°C° 0 mm 2 mps 759 mmHg 63%
    22:00 +19°C° 0 mm 2 mps 759 mmHg 64%
    23:00 +18°C° 0 mm 2 mps 759 mmHg 66%
    Show more